map of SIG home
SIG - Airport
Location
City:  San Juan, Puerto Rico, United States
Name:Fernando Luis Ribas Dominicci Airport
ICAO:TJIG
IATA:SIG
FAA LID:SIG

Details
Type:Airport (Airfield)
Use:Public/Civil, International (customs landing rights)
Latitude:1827'24"N (18.456778)
Longitude:6605'54"W (-66.098471)
Datum:WGS 1984
Elevation:9 ft (3 m)
Variation:13.23W (WMM2015 magnetic declination)
-0.05 annual change
Runways:1
Longest:5539 × 100 ft (1688 × 30.5 m), paved

Time
Time Zone:UTC-4
Local Time:

Weather
METAR:TJIG 201749Z 10012KT 10SM SCT040 29/22 A2999

Related Locations
Nearby:
Farthest:BWB: 12242 mi / 19701 km
Barrow Island, WA, AU

Find:

   beyond  
but within

Other Information
Maps:
NOTAMs:
Links:
Sources:

  
  • flag of United States
  • flag of Puerto Rico
  • flag of San Juan
  

Airport Diagram

Airport diagram for SIG

Airport diagram PDF

Sectional Chart

Flight Planning
at skyvector.com

Satellite Image

Google Maps Satellite view

 

Copyright © 2004-2018 Karl L. Swartz. All rights reserved.
The Great Circle Mapper name and logo are trademarks of the Great Circle Mapper.
All other trademarks mentioned herein belong to their respective owners.
Please see credits for attibutions and further copyright information.

  Follow gcmap on Facebook Follow gcmap on Twitter Follow gcmap on Google+ GCmap on LinkedIn

hCard Microformat

Geo Microformat